This is the latest recevied weather packets stored in our database for station/object WO5CID. If no packets are shown the sender has not sent any weather packets the latest 10 day(s).
| Time | Temp. | Humidity | Pressure | Rain* | Wind** | Luminosity | Snow |
|---|---|---|---|---|---|---|---|
| 1778242281 | 23.89° C | 94% | 1014.8 hPa | 0 mm | - | 89 W/m² | - |
| 1778241978 | 23.89° C | 95% | 1014.9 hPa | 0 mm | - | 81 W/m² | - |
| 1778241676 | 23.33° C | 95% | 1014.9 hPa | 0 mm | - | 71 W/m² | - |
| 1778241373 | 23.33° C | 96% | 1014.3 hPa | 0 mm | - | 67 W/m² | - |
| 1778241070 | 23.33° C | 96% | 1014.5 hPa | 0 mm | - | 64 W/m² | - |
| 1778240767 | 22.78° C | 96% | 1014.5 hPa | 0 mm | - | 58 W/m² | - |
| 1778240462 | 22.78° C | 97% | 1014.3 hPa | 0 mm | - | 46 W/m² | - |
| 1778240160 | 22.78° C | 97% | 1014.2 hPa | 0 mm | - | 45 W/m² | - |
| 1778239859 | 22.78° C | 97% | 1014.2 hPa | 0 mm | - | 41 W/m² | - |
| 1778239554 | 22.78° C | 97% | 1014.2 hPa | 0 mm | - | 31 W/m² | - |
| 1778239251 | 22.78° C | 97% | 1014.1 hPa | 0 mm | - | 20 W/m² | - |
| 1778238948 | 22.78° C | 97% | 1014.3 hPa | 0 mm | - | 21 W/m² | - |
| 1778238645 | 22.22° C | 97% | 1014.3 hPa | 0 mm | - | 18 W/m² | - |
| 1778238343 | 22.22° C | 97% | 1014.2 hPa | 0 mm | - | 15 W/m² | - |
| 1778238039 | 22.22° C | 97% | 1014 hPa | 0 mm | - | 12 W/m² | - |
| 1778237734 | 22.22° C | 97% | 1013.8 hPa | 0 mm | - | 9 W/m² | - |
| 1778237431 | 22.22° C | 97% | 1013.8 hPa | 0 mm | - | 5 W/m² | - |
| 1778237129 | 22.22° C | 97% | 1013.4 hPa | 0 mm | - | 5 W/m² | - |
| 1778236825 | 22.22° C | 97% | 1013.6 hPa | 0 mm | - | 2 W/m² | - |
| 1778236522 | 22.22° C | 97% | 1013.5 hPa | 0 mm | - | 1 W/m² | - |
| 1778236220 | 22.22° C | 97% | 1013.6 hPa | 0 mm | - | 0 W/m² | - |
| 1778235917 | 22.22° C | 97% | 1013.4 hPa | 0 mm | - | 0 W/m² | - |
| 1778235615 | 21.67° C | 97% | 1013.5 hPa | 0 mm | - | 0 W/m² | - |
| 1778235312 | 21.67° C | 97% | 1013.3 hPa | 0 mm | - | 0 W/m² | - |
| 1778235009 | 21.67° C | 97% | 1012.9 hPa | 0 mm | - | 0 W/m² | - |
* Rain latest hour (hover to see other rain measurements)
** Current wind speed in m/s (hover to see current wind gust speed)